Content
SEND FEEDBACK

Daily
Averages
Monthly
Summary
United States of America

WILMINGTON, NORTH CAROLINA


Home > North America > United States > North Carolina
Elevation: 21 meters     Latitude: 34 16N     Longitude: 077 54W

WEATHER
 
SELECT A DAY
Number of Records: 208,807;   Date Range: 1/1/95 - 7/29/14
 
SHARE

PRINT THIS DATA

[ ← Previous Day ]
WEATHER ALMANAC - 9 NOVEMBER, 2013
[ Next Day → ]
[ °F ]   °C
Weather ElementAverageHighLow
Temperature10.9 °C17.8 °C (1:53 pm)2.8 °C (4:53 am)
Dewpoint4.4 °C8.9 °C (6:53 pm)-0.6 °C (6:53 am)
Humidity66.5 %83 % (11:53 pm)42 % (11:53 am)
Barometer1026.1 hPa1028.4 hPa (7:53 am)1023.4 hPa (11:53 pm)
Wind Speed2.4 km/h11.1 km/h (2:53 pm)
Weather ElementAverage
Visibility16.1 km
Wind DirectionNNE (32.6 °)

Weather ElementTotal
Precipitation---
Heating Degree Days8.1 (Base 18.3)
Growing Degree Days0.3 (Base 10)
Averaged from 23 records on 9 November, 2013
WEATHER CONDITIONS BREAKOUT
WIND DIRECTION BREAKOUT
WEATHER BY HOUR - 9 NOVEMBER, 2013
[ °F ]   °C
Local TimeTemperatureDewpointHumidityBarometerVisibilityWind DirectionWind SpeedGust SpeedPrecipitationEventsConditions
1:53 AM4.4 °C0.6 °C77 %1026.8 hPa16.1 kmCalmClear
2:53 AM3.3 °C0 °C79 %1027.1 hPa16.1 kmCalmClear
3:53 AM3.3 °C0 °C79 %1027.4 hPa16.1 kmCalmClear
4:53 AM2.8 °C0 °C82 %1027.1 hPa16.1 kmCalmClear
5:53 AM2.8 °C0 °C82 %1027.1 hPa16.1 kmCalmClear
6:53 AM3.3 °C-0.6 °C76 %1027.8 hPa16.1 kmCalmClear
7:53 AM6.7 °C1.7 °C71 %1028.4 hPa16.1 kmCalmClear
8:53 AM11.1 °C2.8 °C57 %1028.4 hPa16.1 kmNNE (30°)7.4 km/hClear
9:53 AM13.9 °C1.7 °C44 %1028.4 hPa16.1 kmNE (50°)9.3 km/hClear
10:53 AM14.4 °C2.8 °C46 %1028.1 hPa16.1 kmENE (60°)5.6 km/hClear
11:53 AM16.1 °C3.3 °C42 %1027.1 hPa16.1 kmCalmClear
12:53 PM16.7 °C4.4 °C44 %1026.1 hPa16.1 kmSSW (200°)7.4 km/hClear
1:53 PM17.8 °C5 °C43 %1025.1 hPa16.1 kmCalmClear
2:53 PM16.7 °C5.6 °C48 %1025.1 hPa16.1 kmSE (130°)11.1 km/hClear
3:53 PM15.6 °C6.7 °C55 %1025.1 hPa16.1 kmESE (120°)7.4 km/hClear
4:53 PM14.4 °C7.2 °C62 %1024.7 hPa16.1 kmCalmClear
5:53 PM13.3 °C8.3 °C72 %1025.4 hPa16.1 kmCalmClear
6:53 PM12.8 °C8.9 °C77 %1025.7 hPa16.1 kmCalmClear
7:53 PM12.8 °C8.3 °C74 %1025.7 hPa16.1 kmCalmClear
8:53 PM12.2 °C8.9 °C80 %1024.4 hPa16.1 kmSSE (160°)7.4 km/hClear
9:53 PM12.2 °C8.3 °C77 %1024 hPa16.1 kmCalmClear
10:53 PM12.2 °C8.9 °C80 %1023.7 hPa16.1 kmCalmClear
11:53 PM11.7 °C8.9 °C83 %1023.4 hPa16.1 kmCalmClear
Hourly data recorded from KILM, located 0 kilometers away from Wilmington, North Carolina







STORIES FROM OUR PARTNERS